Weather History for Vancouver, WA

Change the Weather History Date:

Saturday, March 23, 2013

  Actual Average Record
Temperature  
Mean Temperature 42 °F 49 °F  
Max Temperature 50 °F 58 °F 75 °F (1903)
Min Temperature 33 °F 41 °F 26 °F (1899)
Degree Days  
Heating Degree Days 23    
Month to date heating degree days 436  
Since 1 July heating degree days 3468  
Cooling Degree Days 0    
Month to date cooling degree days 0  
Year to date cooling degree days 0  
Moisture  
Dew Point 33 °F    
Average Humidity 69    
Maximum Humidity 100    
Minimum Humidity 38    
Precipitation  
Precipitation T in 0.11 in 1.30 in (1993)
Month to date precipitation 1.54 2.74  
Year to date precipitation 6.10 12.27  
Snow  
Snow 0.00 in - - ()
Month to date snowfall 0.0  
Snow Depth 0.00 in    
Sea Level Pressure  
Sea Level Pressure 30.37 in    
Wind  
Wind Speed 2 mph (SW)    
Max Wind Speed 10 mph    
Max Gust Speed 15 mph    
Visibility 9 miles    
Events      
T = Trace of Precipitation, MM = Missing Value Source: NWS Daily Summary

Daily Weather History Graph

Daily Weather History Graph

Search for Another Location

Airport:

Trip Planner

Search our weather history database for the weather conditions in past years. The results will help you decide how hot, cold, wet, or windy it might be!

Date:

Astronomy

Mar. 23, 2013 Rise Set
Actual Time 7:07 AM PDT 7:27 PM PDT
Civil Twilight 6:37 AM PDT 7:57 PM PDT
Nautical Twilight 6:02 AM PDT 8:32 PM PDT
Astronomical Twilight 5:26 AM PDT 9:08 PM PDT
Moon 3:51 PM PDT (3/23) 4:56 AM PDT (3/23)
Length of Visible Light 13h 19m
Length of Day
12h 20m
Waxing Gibbous, 86% of the Moon is Illuminated
Mar 23
Waxing Gibbous
Mar 27
Full
Apr 2
Last Quarter
Apr 10
New
Apr 18
First Quarter

Hourly Weather History & Observations

Time (PDT) Temp. Windchill Dew Point Humidity Pressure Visibility Wind Dir Wind Speed Gust Speed Precip Events Conditions
12:53 AM 35.1 °F - 33.1 °F 92% 30.40 in 10.0 mi Calm Calm - N/A   Clear
1:53 AM 34.0 °F - 33.1 °F 96% 30.41 in 9.0 mi Calm Calm - N/A   Clear
2:40 AM 33.8 °F - 33.8 °F 100% 30.40 in 7.0 mi Calm Calm - N/A   Partly Cloudy
2:53 AM 34.0 °F - 33.1 °F 96% 30.41 in 8.0 mi Calm Calm - N/A   Mostly Cloudy
3:38 AM 33.8 °F - 32.0 °F 93% 30.40 in 7.0 mi Calm Calm - N/A   Scattered Clouds
3:53 AM 34.0 °F - 33.1 °F 96% 30.40 in 6.0 mi Calm Calm - N/A   Clear
4:53 AM 33.1 °F - 32.0 °F 96% 30.40 in 6.0 mi Calm Calm - N/A   Clear
5:02 AM 33.8 °F - 33.8 °F 100% 30.39 in 2.5 mi Calm Calm - N/A   Partly Cloudy
5:14 AM 35.6 °F - 33.8 °F 93% 30.39 in 7.0 mi Calm Calm - N/A   Partly Cloudy
5:27 AM 35.6 °F - 33.8 °F 93% 30.39 in 9.0 mi Calm Calm - N/A   Mostly Cloudy
5:53 AM 35.1 °F - 34.0 °F 96% 30.40 in 8.0 mi Calm Calm - 0.01 in   Overcast
6:53 AM 37.0 °F - 34.0 °F 89% 30.40 in 10.0 mi Calm Calm - N/A   Overcast
7:53 AM 36.0 °F - 35.1 °F 97% 30.40 in 6.0 mi Calm Calm - N/A   Overcast
8:53 AM 37.9 °F - 35.1 °F 89% 30.40 in 7.0 mi Calm Calm - N/A   Overcast
9:53 AM 39.0 °F - 35.1 °F 86% 30.40 in 8.0 mi Calm Calm - N/A   Overcast
10:11 AM 39.2 °F - 35.6 °F 87% 30.40 in 9.0 mi Calm Calm - N/A   Overcast
10:53 AM 39.9 °F - 35.1 °F 83% 30.40 in 10.0 mi Calm Calm - N/A   Overcast
11:53 AM 41.0 °F 38.0 °F 36.0 °F 82% 30.40 in 10.0 mi SSW 4.6 mph - N/A   Mostly Cloudy
12:01 PM 42.8 °F 41.1 °F 35.6 °F 76% 30.39 in 10.0 mi SW 3.5 mph - N/A   Mostly Cloudy
12:18 PM 42.8 °F 40.1 °F 35.6 °F 76% 30.38 in 10.0 mi SW 4.6 mph - N/A   Scattered Clouds
12:25 PM 42.8 °F - 35.6 °F 76% 30.38 in 10.0 mi Calm Calm - N/A   Mostly Cloudy
12:32 PM 42.8 °F 41.1 °F 35.6 °F 76% 30.38 in 10.0 mi South 3.5 mph - N/A   Partly Cloudy
12:53 PM 43.0 °F 40.3 °F 35.1 °F 74% 30.38 in 10.0 mi SSW 4.6 mph - N/A   Partly Cloudy
1:53 PM 46.0 °F 43.9 °F 35.1 °F 66% 30.36 in 10.0 mi SW 4.6 mph - N/A   Partly Cloudy
2:53 PM 48.0 °F - 28.0 °F 46% 30.33 in 10.0 mi West 6.9 mph - N/A   Clear
3:53 PM 48.0 °F - 30.0 °F 50% 30.32 in 10.0 mi Variable 4.6 mph - N/A   Overcast
4:53 PM 48.9 °F - 28.9 °F 46% 30.32 in 10.0 mi West 5.8 mph - N/A   Overcast
5:53 PM 48.0 °F - 27.0 °F 44% 30.31 in 10.0 mi WSW 6.9 mph - N/A   Clear
6:53 PM 46.9 °F - 23.0 °F 39% 30.30 in 10.0 mi WNW 3.5 mph - N/A   Clear
7:53 PM 42.1 °F - 27.0 °F 55% 30.30 in 10.0 mi Calm Calm - N/A   Clear
8:53 PM 39.9 °F - 28.9 °F 65% 30.30 in 10.0 mi Calm Calm - N/A   Clear
9:53 PM 39.9 °F - 30.9 °F 70% 30.30 in 10.0 mi Calm Calm - N/A   Clear
10:53 PM 39.9 °F - 30.0 °F 68% 30.30 in 10.0 mi Calm Calm - N/A   Clear
11:53 PM 36.0 °F - 30.0 °F 79% 30.29 in 10.0 mi Calm Calm - N/A   Clear